Other Surface Observations
Issued by NWS Tucson, AZ

Home | Current Version | Previous Version | Text Only | Print | Product List | Glossary On
Versions: 1 2 3 4 5 6 7 8 9 10 11 12 13 14 15 16 17 18 19 20 21 22 23 24 25 26 27 28 29 30 31 32 33 34 35 36 37 38 39 40 41 42 43 44 45 46 47 48 49 50
000
SXUS55 KTWC 102215
OSOTWC

WEATHER ROUNDUP FOR SOUTHEAST ARIZONA
NATIONAL WEATHER SERVICE TUCSON AZ
315 PM MST SAT DEC 10 2016

AZZ504>506-514-102315-
LOCATION       SKY/WX    TMP DP  RH WIND       PRES   REMARKS
TUCSON         SUNNY     75  32  20 N3        30.06F
DAVIS-MONTHAN  SUNNY     73  33  22 N5        30.05F
CHILDRENS PARK N/A      N/A N/A  24 NW2               PIMA CO DEQ
ALVERNON/22ND  N/A       72 N/A N/A NW3               PIMA CO DEQ
CHERRY/GLENN   N/A       73 N/A N/A NW1               PIMA CO DEQ
TANGERINE      N/A       72 N/A N/A SW3               PIMA CO DEQ
CONTL RANCH    N/A       71  33  25 SW3               PIMA CO DEQ
GRANT/1ST      N/A       72  32  23 SW3               PIMA CO DEQ
CRAYCROFT/22ND N/A       73  33  23 N/A               PIMA CO DEQ
GOLFLINKS/KOLB N/A       72  32  23 NW3               PIMA CO DEQ
AJO/12TH       N/A       71  33  25 SE3               PIMA CO DEQ
FAIRGROUNDS    N/A       72 N/A N/A N/A               PIMA CO DEQ
SAGUARO        N/A       77  33  20 SW3               *SABINO CYN
SAN CARLOS     N/A       65  37  36 SW3               *SAN CARLOS
GREEN VALLEY   N/A       74  30  20 S7                PIMA CO DEQ
HORSE CAMP CYN N/A       68  32  26 SW9G13            *ARAVAIPA CYN
RINCON MTNS    N/A       52  23  32 SW4G12            *NR MANNING CAMP
$$

AZZ509>511-102315-
LOCATION       SKY/WX    TMP DP  RH WIND       PRES   REMARKS
SAFFORD        SUNNY     63  34  33 VRB3      30.09F
STRAY HORSE    N/A       54  22  29 N/A               *
TRAIL CABIN    N/A       61  29  29 W4G10             *N OF GRANVILLE
BLACK HILLS    NOT AVBL
DRY LAKE       N/A       57  25  29 W4G12             *NATANES MTNS
NOON CREEK     N/A       60  36  40 NE3               *PINALENO MTNS
COLUMBINE      N/A       47  19  32 SW7G14            *PINALENO MTNS
GUTHRIE        N/A       56  32  40 SW6G11            *SW OF GUTHRIE
$$

AZZ502-503-513-102315-
LOCATION       SKY/WX    TMP DP  RH WIND       PRES   REMARKS
NOGALES        SUNNY     75  20  12 SW12G18   30.10F
SELLS          N/A       73  34  24 N5                *
SASABE         N/A       76  28  17 SW6G15            *ALTAR VLY
HOPKINS        N/A       66  21  18 W8G17             *SANTA RITA MTNS
CARR CYN       N/A       66  24  20 SE3G10            *W OF HEREFORD
$$

AZZ507-508-512-102315-
LOCATION       SKY/WX    TMP DP  RH WIND       PRES   REMARKS
SIERRA VISTA   SUNNY     72  18  13 W13       30.13F
DOUGLAS        SUNNY     71  28  20 SE6       30.10F
EMPIRE MTNS    NOT AVBL
MULESHOE RANCH N/A       70  28  21 W6G15             *PRESERVE
HEADQUARTERS   N/A       68  23  18 W5G13             *CHIRICAHUA MTNS
$$

.............................NOTES.............................
THIS IS AN AUTOMATED COLLECTIVE WITH MINIMAL QUALITY CONTROL.
PIMA CO DEQ SITES HAVE NONSTANDARD WIND SENSOR HEIGHTS.
PIMA CO DEQ SITES DO NOT REPORT WIND GUSTS.
* INDICATES WIND SENSORS LOCATED AT 20 FEET INSTEAD OF 33 FEET.
..............................KEY..............................
SKY/WX - SKY CONDITION/WEATHER
TMP    - TEMPERATURE IN FAHRENHEIT
DP     - DEWPOINT IN FAHRENHEIT
RH     - RELATIVE HUMIDITY IN PERCENT
WIND   - DIRECTION AND SPEED IN MILES PER HOUR (MPH)
VRB    - VARIABLE WIND DIRECTION
PRES   - MEAN SEA LEVEL PRESSURE IN INCHES OF MERCURY
         F - FALLING PRESSURE   R - RISING PRESSURE
         S - STEADY PRESSURE
VSB    - VISIBILITY IN MILES
HX     - HEAT INDEX IN FAHRENHEIT
WCI    - WIND CHILL INDEX IN FAHRENHEIT
N/A    - NOT AVAILABLE
AFB    - AIR FORCE BASE
         DAVIS-MONTHAN IS DAVIS-MONTHAN AIR FORCE BASE
CYN    - CANYON
MTNS   - MOUNTAINS
NCA    - NATIONAL CONSERVATION AREA
NR     - NEAR
VLY    - VALLEY
CONTL  - CONTINENTAL
PIMA CO DEQ - PIMA COUNTY DEPT OF ENVIRONMENTAL QUALITY



USA.gov is the U.S. government's official web portal to all federal, state and local government web resources and services.